Total_Precipitation_Accumulation
0.00 0.01 0.04 0.07 0.06 0.06 0.04 0.04 0.06 0.06 0.04 0.03 0.05 0.04 0.02 0.00 0.00 0.00 0.00 0.00 0.00 0.01 0.00 0.00 0.00 0.00 0.01 0.01 0.00 0.00 0.00 0.00 0.00 0.00 0.00 0.00 0.00 0.00 0.00 0.00 0.00 0.00 0.00 0.00 0.00 0.00 0.00
0.00 0.00 0.00 0.01 0.03 0.05 0.06 0.06 0.06 0.07 0.06 0.05 0.05 0.05 0.04 0.02 0.00 0.00 0.00 0.00 0.00 0.00 0.01 0.00 0.01 0.00 0.00 0.00 0.00 0.00 0.00 0.00 0.00 0.00 0.00 0.00 0.00 0.00 0.00 0.00 0.00 0.00 0.00 0.00 0.00 0.00 0.00
0.00 0.00 0.00 0.00 0.00 0.03 0.07 0.07 0.08 0.08 0.08 0.08 0.07 0.07 0.05 0.04 0.01 0.00 0.00 0.00 0.01 0.01 0.00 0.00 0.01 0.00 0.00 0.00 0.00 0.00 0.00 0.00 0.00 0.00 0.00 0.00 0.00 0.01 0.01 0.00 0.00 0.00 0.00 0.00 0.00 0.00 0.00
0.00 0.00 0.00 0.00 0.00 0.00 0.04 0.06 0.05 0.06 0.08 0.08 0.07 0.09 0.08 0.07 0.02 0.00 0.00 0.01 0.03 0.03 0.04 0.02 0.01 0.00 0.00 0.00 0.00 0.00 0.00 0.00 0.00 0.00 0.00 0.00 0.00 0.00 0.01 0.01 0.00 0.00 0.00 0.00 0.00 0.00 0.00
0.00 0.00 0.00 0.00 0.00 0.00 0.00 0.02 0.04 0.05 0.07 0.11 0.11 0.08 0.11 0.12 0.06 0.00 0.01 0.02 0.02 0.00 0.02 0.03 0.00 0.00 0.00 0.00 0.00 0.00 0.00 0.00 0.00 0.00 0.00 0.00 0.00 0.00 0.00 0.01 0.01 0.00 0.00 0.00 0.00 0.00 0.00
0.00 0.00 0.00 0.00 0.00 0.00 0.00 0.00 0.02 0.05 0.05 0.07 0.10 0.10 0.10 0.13 0.09 0.02 0.02 0.05 0.04 0.02 0.01 0.00 0.00 0.00 0.00 0.00 0.00 0.00 0.00 0.00 0.00 0.00 0.00 0.00 0.00 0.00 0.00 0.01 0.00 0.00 0.00 0.00 0.00 0.00 0.00
0.00 0.00 0.00 0.00 0.00 0.00 0.00 0.00 0.01 0.03 0.04 0.04 0.09 0.11 0.14 0.14 0.10 0.02 0.01 0.01 0.01 0.00 0.01 0.00 0.00 0.00 0.00 0.00 0.00 0.00 0.00 0.00 0.00 0.00 0.00 0.00 0.00 0.00 0.00 0.00 0.00 0.00 0.00 0.00 0.00 0.00 0.00
0.00 0.00 0.00 0.00 0.00 0.00 0.00 0.01 0.01 0.03 0.04 0.04 0.06 0.13 0.15 0.13 0.10 0.06 0.00 0.00 0.00 0.00 0.00 0.00 0.00 0.00 0.00 0.00 0.00 0.00 0.00 0.00 0.00 0.00 0.00 0.00 0.00 0.00 0.00 0.00 0.00 0.00 0.00 0.00 0.00 0.00 0.00
0.00 0.00 0.01 0.01 0.01 0.00 0.00 0.01 0.02 0.05 0.09 0.07 0.07 0.13 0.20 0.17 0.26 0.13 0.00 0.00 0.00 0.00 0.00 0.00 0.00 0.00 0.00 0.00 0.00 0.00 0.00 0.00 0.00 0.00 0.00 0.00 0.00 0.00 0.00 0.00 0.00 0.00 0.00 0.00 0.00 0.00 0.00
0.01 0.01 0.01 0.01 0.00 0.00 0.01 0.03 0.04 0.05 0.14 0.18 0.14 0.16 0.23 0.38 0.64 0.11 0.02 0.00 0.00 0.00 0.00 0.00 0.00 0.00 0.00 0.00 0.00 0.00 0.00 0.00 0.00 0.00 0.00 0.00 0.00 0.00 0.00 0.00 0.00 0.00 0.00 0.00 0.00 0.00 0.00
0.00 0.01 0.02 0.01 0.01 0.02 0.05 0.07 0.08 0.09 0.15 0.25 0.25 0.21 0.26 0.57 0.44 0.11 0.01 0.00 0.00 0.00 0.00 0.00 0.00 0.00 0.00 0.00 0.00 0.00 0.00 0.00 0.00 0.00 0.00 0.00 0.00 0.00 0.00 0.00 0.00 0.00 0.00 0.00 0.01 0.01 0.02
0.01 0.03 0.03 0.01 0.02 0.06 0.10 0.11 0.12 0.08 0.05 0.15 0.36 0.38 0.48 0.57 0.29 0.06 0.02 0.00 0.01 0.00 0.00 0.00 0.00 0.00 0.01 0.01 0.00 0.00 0.00 0.01 0.01 0.01 0.01 0.00 0.00 0.00 0.00 0.00 0.00 0.00 0.01 0.01 0.01 0.02 0.02
0.02 0.04 0.03 0.02 0.04 0.09 0.12 0.10 0.07 0.09 0.08 0.13 0.37 0.66 0.84 0.62 0.31 0.06 0.05 0.00 0.00 0.00 0.00 0.00 0.00 0.00 0.00 0.00 0.00 0.00 0.01 0.02 0.05 0.07 0.08 0.06 0.01 0.00 0.00 0.00 0.00 0.00 0.03 0.11 0.10 0.07 0.02
0.03 0.05 0.04 0.03 0.03 0.07 0.09 0.06 0.11 0.12 0.11 0.10 0.30 0.72 0.77 0.60 0.31 0.08 0.02 0.00 0.00 0.00 0.00 0.00 0.00 0.00 0.00 0.00 0.00 0.00 0.02 0.02 0.02 0.09 0.13 0.06 0.02 0.00 0.00 0.00 0.00 0.00 0.01 0.04 0.06 0.02 0.00
0.04 0.06 0.05 0.03 0.04 0.06 0.04 0.07 0.09 0.14 0.18 0.15 0.31 0.85 0.96 0.80 0.46 0.13 0.01 0.00 0.00 0.00 0.00 0.00 0.00 0.00 0.00 0.00 0.00 0.01 0.02 0.00 0.00 0.01 0.04 0.04 0.01 0.00 0.00 0.00 0.02 0.07 0.10 0.02 0.05 0.05 0.11
0.04 0.06 0.05 0.04 0.04 0.01 0.03 0.06 0.17 0.45 0.70 0.38 0.33 1.14 0.77 0.65 0.57 0.15 0.04 0.00 0.00 0.00 0.00 0.00 0.00 0.00 0.00 0.00 0.00 0.00 0.00 0.00 0.00 0.00 0.00 0.00 0.02 0.00 0.00 0.00 0.00 0.03 0.03 0.10 0.25 0.13 0.07
0.04 0.06 0.04 0.05 0.02 0.00 0.02 0.11 0.26 0.39 0.51 0.35 0.42 0.89 0.72 0.50 0.49 0.25 0.09 0.00 0.00 0.00 0.00 0.00 0.00 0.00 0.00 0.00 0.00 0.00 0.00 0.00 0.00 0.00 0.00 0.00 0.03 0.01 0.01 0.01 0.00 0.01 0.07 0.03 0.02 0.00 0.01
0.06 0.04 0.03 0.04 0.02 0.00 0.03 0.18 0.19 0.36 0.53 0.46 0.58 0.53 0.82 0.57 0.56 0.24 0.02 0.00 0.00 0.00 0.00 0.00 0.00 0.00 0.00 0.00 0.00 0.00 0.00 0.00 0.00 0.00 0.00 0.00 0.06 0.04 0.01 0.00 0.00 0.00 0.00 0.00 0.02 0.00 0.00
0.06 0.04 0.02 0.04 0.01 0.00 0.02 0.11 0.16 0.31 0.44 0.76 0.51 0.58 0.74 0.33 0.21 0.08 0.00 0.00 0.00 0.00 0.01 0.00 0.00 0.00 0.00 0.00 0.00 0.00 0.00 0.00 0.00 0.00 0.00 0.01 0.10 0.11 0.08 0.09 0.06 0.08 0.01 0.00 0.00 0.02 0.01
0.05 0.04 0.03 0.05 0.01 0.01 0.01 0.03 0.11 0.28 0.38 0.57 0.53 0.73 1.06 0.65 0.09 0.00 0.00 0.00 0.00 0.00 0.00 0.01 0.02 0.02 0.01 0.00 0.00 0.00 0.00 0.00 0.00 0.00 0.01 0.11 0.16 0.10 0.08 0.24 0.18 0.09 0.01 0.00 0.00 0.02 0.01
0.06 0.03 0.04 0.04 0.02 0.01 0.01 0.02 0.07 0.25 0.33 0.33 0.35 0.23 0.32 0.41 0.10 0.00 0.00 0.00 0.00 0.01 0.01 0.03 0.04 0.04 0.02 0.01 0.00 0.00 0.00 0.00 0.00 0.02 0.13 0.30 0.19 0.09 0.10 0.16 0.35 0.15 0.04 0.01 0.01 0.01 0.00
0.05 0.04 0.03 0.05 0.02 0.01 0.00 0.01 0.07 0.34 0.33 0.30 0.44 0.12 0.00 0.01 0.01 0.00 0.00 0.00 0.00 0.01 0.03 0.03 0.01 0.01 0.02 0.02 0.00 0.00 0.00 0.00 0.01 0.03 0.12 0.26 0.29 0.27 0.28 0.19 0.24 0.09 0.01 0.03 0.05 0.01 0.02
0.04 0.04 0.04 0.04 0.01 0.00 0.00 0.01 0.06 0.31 0.39 0.45 0.56 0.15 0.00 0.00 0.01 0.00 0.00 0.00 0.00 0.02 0.02 0.00 0.01 0.02 0.01 0.00 0.00 0.00 0.00 0.01 0.01 0.06 0.23 0.35 0.38 0.48 0.41 0.14 0.05 0.12 0.01 0.02 0.07 0.06 0.02
0.04 0.04 0.07 0.05 0.01 0.00 0.00 0.01 0.05 0.20 0.33 0.47 0.60 0.37 0.11 0.04 0.00 0.00 0.00 0.00 0.00 0.00 0.00 0.00 0.00 0.01 0.00 0.00 0.00 0.00 0.00 0.00 0.01 0.00 0.05 0.18 0.33 0.51 0.72 0.34 0.16 0.07 0.05 0.12 0.15 0.12 0.06
0.04 0.06 0.06 0.03 0.00 0.00 0.00 0.01 0.03 0.10 0.16 0.31 0.36 0.42 0.14 0.04 0.01 0.00 0.01 0.01 0.02 0.02 0.00 0.00 0.00 0.00 0.02 0.01 0.03 0.03 0.01 0.00 0.00 0.00 0.00 0.02 0.09 0.16 0.20 0.07 0.04 0.01 0.05 0.08 0.09 0.08 0.03
0.04 0.04 0.05 0.01 0.00 0.00 0.00 0.01 0.03 0.05 0.05 0.21 0.26 0.40 0.16 0.03 0.02 0.00 0.02 0.01 0.04 0.06 0.01 0.00 0.00 0.01 0.04 0.07 0.09 0.05 0.00 0.00 0.00 0.00 0.00 0.00 0.00 0.01 0.00 0.00 0.00 0.00 0.00 0.01 0.02 0.01 0.00
0.04 0.03 0.02 0.01 0.00 0.00 0.00 0.00 0.03 0.08 0.09 0.13 0.30 0.30 0.11 0.03 0.02 0.00 0.02 0.01 0.01 0.01 0.00 0.00 0.02 0.04 0.06 0.06 0.10 0.03 0.00 0.00 0.00 0.00 0.00 0.00 0.00 0.00 0.00 0.00 0.00 0.00 0.00 0.00 0.00 0.00 0.00
0.03 0.02 0.01 0.01 0.01 0.00 0.00 0.00 0.02 0.06 0.11 0.15 0.21 0.26 0.15 0.04 0.01 0.00 0.00 0.00 0.00 0.00 0.00 0.01 0.05 0.10 0.12 0.08 0.10 0.03 0.00 0.00 0.00 0.00 0.00 0.00 0.00 0.00 0.00 0.00 0.00 0.00 0.00 0.00 0.00 0.00 0.00
0.02 0.02 0.01 0.01 0.00 0.00 0.00 0.00 0.01 0.01 0.08 0.17 0.17 0.18 0.10 0.03 0.00 0.00 0.00 0.00 0.00 0.00 0.00 0.01 0.04 0.10 0.16 0.08 0.02 0.00 0.00 0.00 0.00 0.00 0.00 0.00 0.00 0.00 0.00 0.00 0.00 0.00 0.00 0.00 0.00 0.00 0.00